EW4719 Weather Reports


Display with metric or nautical units.
time (UTC)temp
F
wind
direction
speed
MPH
gust
MPH
rain 1hr
in
rain 24hr
in
rain mn
in
humidity
%
barometer
mb
20260503234528 44 327 0.0 1.0 0.00 0.37 0.00 93 1014.5
20260503233056 44 340 1.0 3.0 0.00 0.37 0.00 93 1014.5
20260503231554 44 340 0.0 2.0 0.00 0.37 0.00 92 1014.5
20260503230116 44 340 0.0 0.0 0.00 0.37 0.00 92 1014.3
20260503224601 43 98 0.0 0.0 0.00 0.37 0.37 92 1014.3
20260503223120 44 121 0.0 0.0 0.00 0.37 0.37 92 1014.2
20260503221609 44 121 0.0 0.0 0.00 0.37 0.37 92 1014.2
20260503220131 44 119 0.0 3.0 0.00 0.37 0.37 92 1014.3
20260503214541 44 71 1.0 3.0 0.00 0.37 0.37 92 1014.3
20260503213104 44 102 0.0 2.0 0.00 0.37 0.37 92 1014.1
20260503211605 44 117 0.0 2.0 0.00 0.37 0.37 92 1014.3
20260503210043 44 109 0.0 0.0 0.00 0.37 0.37 91 1014.4
20260503204546 44 109 0.0 0.0 0.00 0.37 0.37 92 1014.4
20260503203115 44 109 0.0 0.0 0.00 0.37 0.37 91 1014.4
20260503201605 44 109 0.0 2.0 0.00 0.37 0.37 91 1014.1
20260503200005 44 103 0.0 3.0 0.00 0.37 0.37 91 1014.1
20260503194548 44 55 0.0 2.0 0.00 0.37 0.37 91 1014.0
20260503193115 44 22 0.0 3.0 0.00 0.37 0.37 91 1014.0
20260503191503 45 84 0.0 2.0 0.00 0.37 0.37 91 1013.9
20260503190009 45 114 0.0 2.0 0.00 0.37 0.37 91 1013.6
20260503184544 45 61 0.0 0.0 0.00 0.37 0.37 91 1013.7
20260503183110 45 69 1.0 3.0 0.00 0.37 0.37 91 1013.7
20260503181501 45 78 1.0 4.0 0.00 0.37 0.37 91 1013.5
20260503180003 45 76 2.0 5.0 0.00 0.37 0.37 91 1013.5
20260503174552 45 67 2.0 6.0 0.00 0.37 0.37 91 1013.6
20260503173107 45 64 3.0 7.0 0.00 0.37 0.37 91 1013.7
20260503171605 45 70 2.0 8.0 0.00 0.37 0.37 91 1013.7
20260503140150 45 49 4.0 10.0 0.00 0.37 0.37 96 1013.7
20260503130119 44 32 3.0 12.0 0.01 0.37 0.37 96 1014.1
20260503120107 44 74 4.0 12.0 0.00 0.36 0.36 96 1014.1
20260503110132 44 53 5.0 11.0 0.00 0.36 0.36 96 1014.0
20260503090135 44 70 3.0 12.0 0.01 0.33 0.33 96 1013.9
20260503081545 44 117 5.0 12.0 0.02 0.32 0.32 96 1013.9
20260503071610 45 59 4.0 11.0 0.00 0.31 0.31 96 1013.6
20260503070136 45 248 2.0 14.0 0.00 0.31 0.31 96 1013.5
20260503054543 45 44 5.0 15.0 0.06 0.30 0.30 96 1013.3
20260503053101 45 66 3.0 10.0 0.06 0.28 0.28 96 1013.3
20260503051559 45 72 3.0 10.0 0.05 0.27 0.27 95 1013.3
20260503050121 45 74 6.0 14.0 0.05 0.25 0.25 95 1013.2
20260503044557 45 84 5.0 13.0 0.06 0.24 0.24 96 1013.3
20260503043124 45 60 4.0 13.0 0.06 0.24 0.24 96 1013.2
20260503041507 45 84 3.0 11.0 0.06 0.22 0.22 95 1013.2
20260503040004 45 63 6.0 12.0 0.05 0.20 0.20 95 1013.3
20260503034545 45 79 6.0 14.0 0.05 0.19 0.19 95 1013.3
20260503033054 46 76 3.0 14.0 0.04 0.17 0.17 95 1013.3
20260503031546 46 80 7.0 15.0 0.04 0.17 0.17 95 1013.3
20260503030110 46 69 3.0 13.0 0.03 0.15 0.15 95 1013.3
20260503024550 46 26 5.0 15.0 0.03 0.14 0.14 95 1013.3
20260503023118 46 78 4.0 12.0 0.04 0.13 0.13 95 1013.3
20260503021518 46 70 4.0 9.0 0.05 0.13 0.13 95 1013.3
20260503020140 46 71 6.0 11.0 0.06 0.12 0.12 95 1013.3
20260503014526 46 105 3.0 12.0 0.06 0.10 0.11 95 1013.4
20260503013055 47 95 4.0 10.0 0.07 0.09 0.09 94 1013.4
20260503011546 47 66 2.0 12.0 0.06 0.08 0.08 95 1013.5
20260503010113 47 59 3.0 8.0 0.06 0.06 0.06 94 1013.5
20260503004556 47 65 2.0 6.0 0.04 0.05 0.05 94 1013.6
20260503003116 47 72 2.0 8.0 0.02 0.02 0.02 94 1013.7
20260503001546 47 75 1.0 9.0 0.02 0.02 0.02 94 1013.9
20260503000149 47 29 3.0 12.0 0.01 0.01 0.01 94 1013.9